Muskegon, MI

7:49 PM EST on December 05, 2016 (GMT -0500)
Muskegon County

Weather History for KMKG - April, 2013

Change the Weather History Date:

Sunday, April 14, 2013

  Actual Average Record
Temperature  
Mean Temperature 40 °F 46 °F  
Max Temperature 49 °F 55 °F 76 °F (2003)
Min Temperature 30 °F 37 °F 20 °F (1953)
Degree Days  
Heating Degree Days 25 19  
Month to date heating degree days 367 302  
Since 1 July heating degree days 5823 5964  
Cooling Degree Days 0 0  
Month to date cooling degree days 0 0  
Year to date cooling degree days 0 0  
Moisture  
Dew Point 32 °F    
Average Humidity 77    
Maximum Humidity 92    
Minimum Humidity 61    
Precipitation  
Precipitation 0.07 in 0.10 in 1.50 in (1987)
Month to date precipitation 3.46 1.35  
Year to date precipitation 14.15 7.46  
Snow  
Snow T in 0.00 in 2.00 in (1905)
Month to date snowfall T 1.8  
Since 1 July snowfall 98.6 93.2  
Snow Depth 0.00 in    
Sea Level Pressure  
Sea Level Pressure 29.98 in    
Wind  
Wind Speed 11 mph (ESE)    
Max Wind Speed 26 mph    
Max Gust Speed 32 mph    
Visibility 8 miles    
Events Rain , Snow    
T = Trace of Precipitation, MM = Missing Value Source: NWS Daily Summary

Daily Weather History Graph

Daily Weather History Graph

Search for Another Location

Airport or City:

Trip Planner

Search our weather history database for the weather conditions in past years. The results will help you decide how hot, cold, wet, or windy it might be!

Date:

Astronomy

Apr. 14, 2013 Rise Set
Actual Time 7:04 AM EDT 8:26 PM EDT
Civil Twilight 6:34 AM EDT 8:56 PM EDT
Nautical Twilight 5:59 AM EDT 9:32 PM EDT
Astronomical Twilight 5:21 AM EDT 10:10 PM EDT
Moon 9:35 AM EDT (4/14) No Moon Set
Length of Visible Light 14h 21m
Length of Day
13h 22m
Waxing Crescent, 17% of the Moon is Illuminated
Apr 14
Waxing Crescent
Apr 18
First Quarter
Apr 25
Full
May 2
Last Quarter
May 9
New

Hourly Weather History & Observations

Time (EDT) Temp. Windchill Dew Point Humidity Pressure Visibility Wind Dir Wind Speed Gust Speed Precip Events Conditions
12:55 AM 36.0 °F 30.3 °F 28.0 °F 73% 30.00 in 10.0 mi West 6.9 mph - N/A   Overcast
1:55 AM 35.1 °F 31.0 °F 28.0 °F 76% 30.02 in 10.0 mi West 4.6 mph - N/A   Clear
2:55 AM 36.0 °F 32.1 °F 27.0 °F 70% 30.02 in 10.0 mi WNW 4.6 mph - N/A   Clear
3:55 AM 35.1 °F 30.1 °F 27.0 °F 72% 30.02 in 10.0 mi WNW 5.8 mph - N/A   Clear
4:55 AM 34.0 °F - 27.0 °F 75% 30.03 in 10.0 mi Calm Calm - N/A   Clear
5:55 AM 30.9 °F - 27.0 °F 85% 30.05 in 10.0 mi Calm Calm - N/A   Overcast
6:55 AM 30.9 °F - 28.0 °F 89% 30.07 in 10.0 mi Calm Calm - N/A   Overcast
7:55 AM 33.1 °F 30.0 °F 28.9 °F 85% 30.07 in 10.0 mi SE 3.5 mph - N/A   Overcast
8:55 AM 37.0 °F 33.3 °F 30.0 °F 76% 30.06 in 10.0 mi East 4.6 mph - N/A   Overcast
9:55 AM 37.0 °F 30.4 °F 28.0 °F 70% 30.02 in 10.0 mi East 9.2 mph - N/A   Overcast
10:55 AM 37.9 °F 30.9 °F 28.0 °F 68% 30.04 in 10.0 mi ESE 10.4 mph - N/A   Overcast
11:52 AM 35.6 °F 28.6 °F 30.2 °F 81% 30.07 in 2.0 mi SSE 9.2 mph - 0.01 in Snow Light Snow
11:55 AM 36.0 °F 28.5 °F 30.0 °F 79% 30.09 in 2.0 mi SE 10.4 mph - 0.01 in Snow Light Snow
12:05 PM 35.6 °F 29.2 °F 30.2 °F 81% 30.08 in 1.2 mi SE 8.1 mph - 0.01 in Snow Light Snow
12:26 PM 33.8 °F 27.7 °F 30.2 °F 87% 30.07 in 1.0 mi ESE 6.9 mph - 0.03 in Snow Light Snow
12:38 PM 33.8 °F 27.0 °F 30.2 °F 87% 30.05 in 0.8 mi East 8.1 mph - N/A Snow Light Snow
12:48 PM 33.8 °F 27.0 °F 30.2 °F 87% 30.04 in 2.0 mi East 8.1 mph - 0.06 in Snow Light Snow
12:55 PM 35.1 °F 27.4 °F 30.9 °F 85% 30.06 in 4.0 mi East 10.4 mph - 0.06 in Snow Light Snow
1:19 PM 35.6 °F 28.6 °F 33.8 °F 93% 30.02 in 10.0 mi East 9.2 mph - 0.00 in   Overcast
1:51 PM 37.4 °F 29.3 °F 33.8 °F 87% 30.00 in 10.0 mi East 12.7 mph - 0.00 in Rain Light Rain
1:55 PM 39.0 °F 32.3 °F 34.0 °F 82% 30.02 in 10.0 mi East 10.4 mph - 0.00 in Rain Light Rain
2:38 PM 41.0 °F 32.5 °F 33.8 °F 76% 29.97 in 10.0 mi East 17.3 mph - 0.00 in   Overcast
2:55 PM 42.1 °F 34.5 °F 34.0 °F 73% 29.98 in 10.0 mi East 15.0 mph - 0.00 in   Mostly Cloudy
3:44 PM 44.6 °F 37.4 °F 35.6 °F 71% 29.93 in 10.0 mi East 16.1 mph 24.2 mph N/A   Mostly Cloudy
3:55 PM 45.0 °F 37.4 °F 35.1 °F 68% 29.94 in 10.0 mi East 18.4 mph 26.5 mph N/A   Mostly Cloudy
4:15 PM 46.4 °F 39.0 °F 35.6 °F 66% 29.90 in 10.0 mi East 19.6 mph 26.5 mph N/A   Scattered Clouds
4:55 PM 48.0 °F - 36.0 °F 63% 29.89 in 10.0 mi East 20.7 mph 29.9 mph N/A   Partly Cloudy
5:55 PM 48.0 °F - 36.0 °F 63% 29.87 in 10.0 mi East 21.9 mph 26.5 mph N/A   Partly Cloudy
6:55 PM 48.9 °F - 37.0 °F 64% 29.86 in 10.0 mi ESE 21.9 mph 29.9 mph N/A   Clear
7:55 PM 46.9 °F - 37.0 °F 68% 29.86 in 10.0 mi East 18.4 mph 29.9 mph N/A   Clear
8:55 PM 46.9 °F - 37.0 °F 68% 29.84 in 10.0 mi East 15.0 mph - N/A   Clear
9:55 PM 46.9 °F - 37.0 °F 68% 29.82 in 10.0 mi ESE 16.1 mph 25.3 mph N/A   Clear
10:55 PM 48.0 °F - 36.0 °F 63% 29.81 in 10.0 mi East 16.1 mph - N/A   Clear
11:55 PM 46.9 °F - 35.1 °F 63% 29.80 in 10.0 mi ESE 18.4 mph 24.2 mph N/A   Clear